Flag for China Weather past 2 weeks in Langfang, Hebei, China

Now
61 °F

Haze.


Feels Like: 61 °F
Forecast: 44 / 65 °F
Wind: 8 mph from Southeast

Location: Beijing Airport

Current Time: Mar 30, 2015 at 9:48:14 AM

Latest Report: Mar 30, 2015 at 9:30 AM


Visibility: 3 mi

Pressure: 29.86 "Hg

Humidity: 48%

Dew point: 41 °F

Location of LangfangLocation

Historic Weather in Langfang — Graph

°F

Langfang temperature yesterday

Maximum temperature yesterday: 75 °F (at 3:30 PM)
Minimum temperature yesterday: 43 °F (at 4:30 AM)
Average temperature yesterday: 60 °F

Past Weeks' High & Low Weather Summary

 TemperatureHumidityPressure
High77 °F (Mar 28, 3:00 PM)93% (Mar 17, 2:30 AM)30.54 "Hg (Mar 17, 2:30 AM)
Low28 °F (Mar 23, 5:30 AM)5% (Mar 21, 3:30 PM)29.80 "Hg (Mar 30, 2:30 AM)
Average54 °F35%30.14 "Hg
* Reported Mar 15 8:00 AM — Mar 30 8:30 AM, Langfang, Weather by CustomWeather, © 2015

Note: Actual official high and low records may vary slightly from our data, if they occured in-between our weather recording intervals... More about our weather records

Advertising

Langfang weather history for previous 24 hours

 ConditionsComfort  
Time TempWeatherWind HumidityBarometerVisibility
8:30 AM
Mon, Mar 30
59 °FHaze.8 mph51%29.83 "Hg3 mi
8:00 AM57 °FHaze.6 mph55%29.83 "Hg3 mi
7:30 AM55 °FHaze.6 mph59%29.83 "Hg3 mi
7:00 AM54 °FHaze.3 mph63%29.83 "Hg3 mi
6:30 AM54 °FHaze.3 mph58%29.83 "Hg3 mi
6:00 AM54 °FClear.3 mph58%29.83 "Hg4 mi
5:30 AM54 °FClear.3 mph58%29.83 "Hg4 mi
5:00 AM55 °FClear.3 mph55%29.80 "Hg4 mi
4:30 AM55 °FClear.3 mph55%29.80 "Hg4 mi
4:00 AM57 °FClear.8 mph55%29.80 "Hg4 mi
3:30 AM57 °FClear.6 mph55%29.80 "Hg4 mi
3:00 AM57 °FClear.6 mph55%29.80 "Hg4 mi
2:30 AM57 °FHaze.8 mph55%29.80 "Hg3 mi
2:00 AM57 °FHaze.6 mph55%29.83 "Hg3 mi
1:30 AM57 °FHaze.6 mph55%29.83 "Hg3 mi
1:00 AM57 °FHaze.6 mph55%29.83 "Hg3 mi
12:30 AM57 °FHaze.3 mph55%29.83 "Hg3 mi
12:00 AM57 °FHaze.3 mph55%29.83 "Hg3 mi
11:30 PM
Sun, Mar 29
57 °FHaze.3 mph55%29.86 "Hg3 mi
11:00 PM57 °FHaze.3 mph55%29.86 "Hg3 mi
10:30 PM59 °FHaze.3 mph51%29.86 "Hg3 mi
10:00 PM59 °FHaze.6 mph51%29.86 "Hg3 mi
9:30 PM61 °FHaze.6 mph48%29.86 "Hg3 mi
9:00 PM63 °FClear.8 mph42%29.86 "Hg4 mi
8:30 PM63 °FClear.8 mph42%29.86 "Hg4 mi
8:00 PM64 °FClear.10 mph40%29.86 "Hg4 mi
7:30 PM64 °FClear.10 mph37%29.86 "Hg4 mi
7:00 PM66 °FClear.8 mph35%29.86 "Hg4 mi
6:30 PM68 °FClear.8 mph30%29.83 "Hg5 mi
6:00 PM72 °FClear.8 mph22%29.83 "Hg5 mi
5:30 PM73 °FClear.10 mph20%29.83 "Hg5 mi
5:00 PM73 °FClear.13 mph20%29.83 "Hg5 mi
4:30 PM73 °FSunny.8 mph20%29.86 "Hg10 mi
4:00 PM73 °FSunny.13 mph20%29.86 "Hg10 mi
3:30 PM75 °FClear.13 mph19%29.86 "Hg5 mi
3:00 PM73 °FClear.6 mph23%29.89 "Hg4 mi
2:30 PM73 °FHaze.8 mph29%29.89 "Hg3 mi
2:00 PM72 °FHaze.8 mph31%29.92 "Hg3 mi
1:30 PM72 °FHaze.8 mph31%29.95 "Hg2 mi
1:00 PM70 °FHaze.8 mph33%29.95 "Hg2 mi
12:30 PM70 °FHaze.8 mph33%29.98 "Hg2 mi
12:00 PM68 °FHaze.10 mph35%29.98 "Hg2 mi
11:30 AM66 °FHaze.8 mph37%30.01 "Hg2 mi
11:00 AM66 °FHaze.6 mph37%30.04 "Hg2 mi
10:30 AM64 °FHaze.3 mph40%30.07 "Hg2 mi
10:00 AM63 °FHaze.6 mph42%30.07 "Hg2 mi
9:30 AM61 °FHaze.6 mph45%30.07 "Hg2 mi
9:00 AM59 °FHaze.6 mph48%30.07 "Hg2 mi
Weather by CustomWeather, © 2015

See weather overviewHow to use our weather pages